Location: Blachownia
(50.7807°N, 18.9578°E)
Time: 14:58:38
(UTC+01:00)

ISS - Pass Details

Date: 01 February 2019
Orbit: 403 x 411 km, 51.6° (Epoch: 16 February)

Event Time Altitude Azimuth Distance (km) Brightness Sun altitude
Rises 17:19:58 0° 264° (W) 2,332 2.0 -7.4°
Reaches altitude 10° 17:22:03 10° 266° (W) 1,473 0.6 -7.7°
Maximum altitude 17:25:21 78° 352° (N) 423 -3.8 -8.2°
Enters shadow 17:28:24 12° 80° (E) 1,366 -1.8 -8.6°
